�������l�o���
Date,Time,MP-1(��Sv/h),MP-2(��Sv/h),MP-3(��Sv/h),MP-4(��Sv/h),MP-5(��Sv/h),MP-6(��Sv/h),MP-7(��Sv/h),MP-8(��Sv/h),����,����(m/s),���J
2018/03/28,00:00,0.860,1.434,0.894,1.673,1.138,0.486,0.848,0.816,�k�k��,1.9,��
2018/03/28,00:10,0.859,1.433,0.892,1.675,1.136,0.485,0.849,0.815,�k��,1.4,��
2018/03/28,00:20,0.860,1.435,0.895,1.670,1.138,0.483,0.849,0.815,��,0.6,��
2018/03/28,00:30,0.859,1.435,0.892,1.672,1.136,0.486,0.849,0.814,���k��,0.9,��
2018/03/28,00:40,0.859,1.434,0.893,1.674,1.135,0.484,0.851,0.815,�k��,1.2,��
2018/03/28,00:50,0.857,1.434,0.893,1.673,1.136,0.483,0.850,0.815,�k��,1.9,��
2018/03/28,01:00,0.857,1.431,0.893,1.671,1.135,0.485,0.847,0.815,�k�k��,4.4,��
2018/03/28,01:10,0.858,1.433,0.896,1.674,1.135,0.485,0.849,0.815,�k�k��,4.5,��
2018/03/28,01:20,0.857,1.434,0.894,1.673,1.136,0.485,0.849,0.816,�k�k��,4.1,��
2018/03/28,01:30,0.859,1.433,0.893,1.673,1.134,0.485,0.848,0.815,�k��,2.9,��
2018/03/28,01:40,0.858,1.431,0.892,1.672,1.135,0.484,0.848,0.815,�k��,2.5,��
2018/03/28,01:50,0.860,1.432,0.895,1.673,1.134,0.484,0.849,0.815,�k��,1.1,��
2018/03/28,02:00,0.860,1.434,0.893,1.673,1.136,0.485,0.848,0.815,�k��,1.7,��
2018/03/28,02:10,0.859,1.433,0.893,1.673,1.134,0.484,0.849,0.816,�k��,1.9,��
2018/03/28,02:20,0.860,1.434,0.893,1.671,1.136,0.485,0.848,0.816,�k��,1.2,��
2018/03/28,02:30,0.857,1.434,0.894,1.673,1.136,0.485,0.848,0.815,�k��,1.5,��
2018/03/28,02:40,0.857,1.434,0.893,1.672,1.133,0.485,0.848,0.815,�k��,2.0,��
2018/03/28,02:50,0.859,1.434,0.892,1.675,1.135,0.484,0.850,0.816,�k��,4.1,��
2018/03/28,03:00,0.859,1.432,0.894,1.671,1.133,0.485,0.850,0.814,�k�k��,4.5,��
2018/03/28,03:10,0.859,1.435,0.893,1.675,1.136,0.484,0.847,0.815,�k�k��,5.0,��
2018/03/28,03:20,0.858,1.431,0.894,1.675,1.136,0.484,0.849,0.816,�k�k��,4.8,��
2018/03/28,03:30,0.859,1.433,0.892,1.673,1.135,0.485,0.847,0.816,�k�k��,4.1,��
2018/03/28,03:40,0.858,1.432,0.893,1.673,1.136,0.484,0.848,0.815,�k�k��,4.2,��
2018/03/28,03:50,0.859,1.433,0.892,1.674,1.135,0.483,0.849,0.815,�k�k��,4.3,��
2018/03/28,04:00,0.858,1.434,0.895,1.676,1.135,0.484,0.848,0.814,�k�k��,3.6,��
2018/03/28,04:10,0.859,1.433,0.893,1.671,1.135,0.485,0.847,0.814,�k�k��,3.2,��
2018/03/28,04:20,0.858,1.432,0.894,1.675,1.135,0.483,0.849,0.816,�k�k��,2.9,��
2018/03/28,04:30,0.857,1.432,0.894,1.672,1.134,0.485,0.847,0.814,�k�k��,3.1,��
2018/03/28,04:40,0.857,1.432,0.895,1.674,1.134,0.484,0.848,0.816,�k�k��,3.0,��
2018/03/28,04:50,0.857,1.434,0.896,1.673,1.135,0.485,0.848,0.815,�k�k��,3.3,��
2018/03/28,05:00,0.858,1.432,0.895,1.675,1.135,0.485,0.849,0.814,�k�k��,5.0,��
2018/03/28,05:10,0.858,1.431,0.895,1.676,1.132,0.482,0.849,0.815,�k�k��,4.1,��
2018/03/28,05:20,0.860,1.433,0.895,1.675,1.134,0.483,0.847,0.815,�k�k��,2.6,��
2018/03/28,05:30,0.858,1.433,0.891,1.674,1.133,0.483,0.849,0.815,�k�k��,2.8,��
2018/03/28,05:40,0.857,1.436,0.893,1.672,1.135,0.483,0.849,0.815,�k�k��,2.6,��
2018/03/28,05:50,0.857,1.433,0.895,1.671,1.134,0.485,0.850,0.816,�k�k��,1.7,��
2018/03/28,06:00,0.858,1.432,0.895,1.673,1.135,0.484,0.847,0.818,�k�k��,1.2,��
2018/03/28,06:10,0.856,1.433,0.892,1.674,1.135,0.483,0.849,0.816,-,CALM,��
2018/03/28,06:20,0.858,1.431,0.895,1.674,1.133,0.484,0.847,0.815,���k��,1.1,��
2018/03/28,06:30,0.858,1.432,0.895,1.676,1.135,0.485,0.849,0.816,���쐼,1.4,��
2018/03/28,06:40,0.858,1.433,0.894,1.671,1.135,0.484,0.850,0.814,��쐼,1.5,��
2018/03/28,06:50,0.858,1.431,0.892,1.674,1.133,0.484,0.849,0.815,�쐼,1.5,��
2018/03/28,07:00,0.859,1.435,0.894,1.674,1.136,0.485,0.850,0.817,��쐼,1.5,��
2018/03/28,07:10,0.859,1.436,0.895,1.675,1.136,0.485,0.851,0.815,��쐼,0.6,��
2018/03/28,07:20,0.860,1.435,0.894,1.675,1.134,0.484,0.850,0.817,�k�k��,1.1,��
2018/03/28,07:30,0.862,1.434,0.894,1.677,1.134,0.486,0.850,0.816,�k,1.1,��
2018/03/28,07:40,0.861,1.436,0.894,1.673,1.138,0.483,0.851,0.816,�k�k��,1.5,��
2018/03/28,07:50,0.860,1.433,0.893,1.676,1.138,0.485,0.851,0.816,�k�k��,2.8,��
2018/03/28,08:00,0.859,1.433,0.894,1.674,1.137,0.484,0.852,0.815,�k��,1.9,��
2018/03/28,08:10,0.859,1.437,0.895,1.675,1.137,0.483,0.852,0.817,�k��,0.9,��
2018/03/28,08:20,0.861,1.433,0.897,1.678,1.136,0.483,0.852,0.818,�k��,0.8,��
2018/03/28,08:30,0.861,1.435,0.896,1.676,1.139,0.484,0.852,0.815,-,CALM,��
2018/03/28,08:40,0.862,1.435,0.895,1.677,1.141,0.483,0.848,0.818,���k��,1.2,��
2018/03/28,08:50,0.862,1.433,0.896,1.679,1.137,0.481,0.850,0.818,���k��,1.2,��
2018/03/28,09:00,0.862,1.434,0.895,1.675,1.137,0.482,0.848,0.817,���쓌,1.1,��
2018/03/28,09:10,0.862,1.433,0.895,1.677,1.140,0.481,0.849,0.815,���쓌,0.6,��
2018/03/28,09:20,0.859,1.434,0.896,1.676,1.140,0.482,0.848,0.812,��쓌,1.2,��
2018/03/28,09:30,0.860,1.433,0.894,1.677,1.138,0.484,0.851,0.813,��쓌,2.0,��
2018/03/28,09:40,0.861,1.433,0.896,1.678,1.140,0.483,0.850,0.813,�쓌,1.9,��
2018/03/28,09:50,0.862,1.435,0.896,1.679,1.140,0.484,0.849,0.814,�쓌,2.5,��
2018/03/28,10:00,0.859,1.437,0.896,1.676,1.138,0.482,0.851,0.813,�쓌,3.1,��
2018/03/28,10:10,0.862,1.438,0.895,1.679,1.138,0.483,0.851,0.814,�쓌,2.6,��
2018/03/28,10:20,0.859,1.436,0.895,1.674,1.139,0.483,0.850,0.814,�쓌,2.6,��
2018/03/28,10:30,0.861,1.438,0.893,1.679,1.137,0.484,0.850,0.813,�쓌,2.8,��
2018/03/28,10:40,0.861,1.439,0.896,1.679,1.138,0.484,0.851,0.814,��쓌,2.8,��
2018/03/28,10:50,0.862,1.439,0.896,1.679,1.139,0.484,0.851,0.813,��쓌,3.0,��
2018/03/28,11:00,0.860,1.439,0.895,1.678,1.141,0.484,0.850,0.815,�쓌,3.0,��
2018/03/28,11:10,0.862,1.437,0.895,1.681,1.139,0.485,0.850,0.814,�쓌,3.8,��
2018/03/28,11:20,0.863,1.434,0.896,1.680,1.141,0.486,0.850,0.814,��쓌,3.0,��
2018/03/28,11:30,0.862,1.440,0.894,1.682,1.141,0.484,0.851,0.813,�쓌,3.8,��
2018/03/28,11:40,0.861,1.438,0.895,1.680,1.142,0.485,0.851,0.814,��쓌,4.0,��
2018/03/28,11:50,0.861,1.441,0.894,1.680,1.139,0.485,0.853,0.814,��쓌,3.8,��
2018/03/28,12:00,0.862,1.437,0.895,1.681,1.140,0.484,0.850,0.814,��쓌,4.6,��
2018/03/28,12:10,0.863,1.440,0.897,1.677,1.141,0.486,0.850,0.815,��쓌,3.5,��
2018/03/28,12:20,0.862,1.440,0.896,1.680,1.142,0.486,0.852,0.816,��쓌,3.7,��
2018/03/28,12:30,0.862,1.444,0.898,1.681,1.144,0.486,0.852,0.816,��쓌,5.0,��
2018/03/28,12:40,0.863,1.440,0.896,1.680,1.143,0.485,0.852,0.812,��쓌,4.5,��
2018/03/28,12:50,0.865,1.440,0.897,1.680,1.142,0.485,0.851,0.813,��쓌,4.8,��
2018/03/28,13:00,0.865,1.442,0.898,1.681,1.145,0.486,0.853,0.814,��쓌,5.2,��
2018/03/28,13:10,0.864,1.440,0.898,1.682,1.145,0.485,0.852,0.820,��쓌,6.0,��
2018/03/28,13:20,0.864,1.439,0.897,1.682,1.144,0.484,0.852,0.814,��쓌,6.0,��
2018/03/28,13:30,0.868,1.439,0.898,1.682,1.144,0.485,0.852,0.814,��쓌,5.5,��
2018/03/28,13:40,0.865,1.439,0.900,1.683,1.144,0.484,0.853,0.817,��쓌,7.1,��
2018/03/28,13:50,0.864,1.442,0.899,1.683,1.142,0.487,0.853,0.814,��쓌,7.2,��
2018/03/28,14:00,0.864,1.442,0.897,1.683,1.145,0.488,0.856,0.815,��쓌,6.3,��
2018/03/28,14:10,0.864,1.443,0.897,1.685,1.144,0.485,0.853,0.817,��,6.3,��
2018/03/28,14:20,0.865,1.445,0.898,1.684,1.147,0.487,0.855,0.816,��,6.3,��
2018/03/28,14:30,0.865,1.444,0.898,1.688,1.147,0.487,0.855,0.817,��,5.8,��
2018/03/28,14:40,0.867,1.445,0.900,1.683,1.147,0.485,0.853,0.816,��쓌,5.6,��
2018/03/28,14:50,0.865,1.445,0.900,1.684,1.146,0.485,0.853,0.817,��쓌,5.7,��
2018/03/28,15:00,0.864,1.443,0.900,1.683,1.145,0.487,0.854,0.816,��,5.5,��
2018/03/28,15:10,0.865,1.445,0.900,1.683,1.148,0.487,0.854,0.816,��,5.4,��
2018/03/28,15:20,0.866,1.445,0.900,1.684,1.147,0.489,0.855,0.816,��,5.4,��
2018/03/28,15:30,0.865,1.446,0.898,1.685,1.144,0.487,0.853,0.814,��,5.7,��
2018/03/28,15:40,0.865,1.444,0.900,1.685,1.147,0.486,0.857,0.815,��,5.8,��
2018/03/28,15:50,0.868,1.446,0.900,1.684,1.147,0.489,0.853,0.816,��,5.0,��
2018/03/28,16:00,0.866,1.447,0.901,1.684,1.147,0.485,0.854,0.815,��,4.8,��
2018/03/28,16:10,0.866,1.445,0.899,1.681,1.147,0.487,0.854,0.815,��,5.1,��
2018/03/28,16:20,0.868,1.449,0.899,1.681,1.144,0.487,0.853,0.815,��,4.5,��
2018/03/28,16:30,0.868,1.448,0.900,1.681,1.144,0.487,0.853,0.816,��,4.2,��
2018/03/28,16:40,0.867,1.449,0.898,1.680,1.146,0.488,0.853,0.815,��,4.4,��
2018/03/28,16:50,0.866,1.444,0.900,1.681,1.146,0.490,0.851,0.817,��,4.2,��
2018/03/28,17:00,0.867,1.447,0.899,1.683,1.147,0.490,0.854,0.817,��,4.4,��
2018/03/28,17:10,0.866,1.449,0.901,1.680,1.147,0.489,0.854,0.816,��,4.3,��
2018/03/28,17:20,0.865,1.448,0.902,1.681,1.145,0.491,0.854,0.817,��,4.9,��
2018/03/28,17:30,0.866,1.451,0.899,1.682,1.145,0.490,0.855,0.819,��,5.7,��
2018/03/28,17:40,0.866,1.451,0.898,1.682,1.148,0.490,0.853,0.819,��,6.9,��
2018/03/28,17:50,0.868,1.451,0.898,1.680,1.147,0.490,0.854,0.820,��,7.5,��
2018/03/28,18:00,0.867,1.451,0.900,1.680,1.147,0.490,0.854,0.818,��,7.5,��
2018/03/28,18:10,0.869,1.452,0.900,1.686,1.145,0.490,0.855,0.820,��,7.6,��
2018/03/28,18:20,0.867,1.450,0.899,1.685,1.145,0.489,0.854,0.820,��,7.4,��
2018/03/28,18:30,0.867,1.445,0.901,1.683,1.145,0.490,0.853,0.819,��,6.9,��
2018/03/28,18:40,0.867,1.450,0.902,1.685,1.147,0.490,0.855,0.818,��,7.2,��
2018/03/28,18:50,0.867,1.445,0.902,1.684,1.148,0.491,0.853,0.819,��,7.0,��
2018/03/28,19:00,0.867,1.450,0.900,1.682,1.149,0.490,0.854,0.818,��,6.9,��
2018/03/28,19:10,0.866,1.448,0.902,1.686,1.147,0.489,0.855,0.818,��,6.9,��
2018/03/28,19:20,0.868,1.447,0.903,1.683,1.149,0.490,0.855,0.817,��쐼,6.6,��
2018/03/28,19:30,0.866,1.450,0.903,1.683,1.149,0.489,0.855,0.817,��쐼,5.7,��
2018/03/28,19:40,0.868,1.446,0.901,1.682,1.147,0.489,0.855,0.818,�쐼,4.7,��
2018/03/28,19:50,0.866,1.450,0.902,1.683,1.148,0.490,0.854,0.817,�쐼,4.9,��
2018/03/28,20:00,0.865,1.444,0.901,1.683,1.147,0.490,0.853,0.818,���쐼,5.1,��
2018/03/28,20:10,0.866,1.446,0.902,1.681,1.147,0.489,0.856,0.817,���쐼,3.6,��
2018/03/28,20:20,0.864,1.446,0.900,1.684,1.148,0.490,0.853,0.817,���쐼,3.5,��
2018/03/28,20:30,0.867,1.446,0.901,1.682,1.146,0.488,0.854,0.817,���쐼,4.1,��
2018/03/28,20:40,0.866,1.446,0.901,1.682,1.146,0.489,0.854,0.818,���쐼,3.5,��
2018/03/28,20:50,0.865,1.446,0.901,1.685,1.147,0.489,0.854,0.818,���쐼,3.5,��
2018/03/28,21:00,0.866,1.447,0.901,1.683,1.146,0.489,0.854,0.818,���쐼,3.1,��
2018/03/28,21:10,0.866,1.444,0.901,1.683,1.146,0.488,0.853,0.818,��,3.3,��
2018/03/28,21:20,0.868,1.444,0.902,1.684,1.147,0.489,0.854,0.817,�쐼,3.2,��
2018/03/28,21:30,0.867,1.444,0.901,1.683,1.146,0.490,0.853,0.817,��,1.7,��
2018/03/28,21:40,0.866,1.445,0.902,1.683,1.146,0.487,0.854,0.819,���k��,1.2,��
2018/03/28,21:50,0.865,1.444,0.899,1.683,1.149,0.490,0.854,0.817,�쐼,1.2,��
2018/03/28,22:00,0.866,1.445,0.901,1.684,1.145,0.487,0.854,0.818,���쐼,1.5,��
2018/03/28,22:10,0.867,1.446,0.899,1.684,1.147,0.488,0.851,0.819,���쐼,1.7,��
2018/03/28,22:20,0.866,1.442,0.902,1.684,1.148,0.489,0.854,0.815,���쐼,2.3,��
2018/03/28,22:30,0.867,1.443,0.902,1.682,1.144,0.488,0.854,0.818,���쐼,2.2,��
2018/03/28,22:40,0.869,1.444,0.900,1.682,1.147,0.488,0.852,0.816,���쐼,2.9,��
2018/03/28,22:50,0.867,1.440,0.899,1.682,1.146,0.487,0.852,0.818,�쐼,3.2,��
2018/03/28,23:00,0.866,1.442,0.900,1.680,1.145,0.488,0.855,0.818,���쐼,4.3,��
2018/03/28,23:10,0.864,1.445,0.902,1.682,1.147,0.487,0.854,0.815,���쐼,3.3,��
2018/03/28,23:20,0.865,1.445,0.900,1.682,1.147,0.489,0.852,0.817,���쐼,3.2,��
2018/03/28,23:30,0.868,1.442,0.900,1.681,1.145,0.488,0.852,0.817,���쐼,5.0,��
2018/03/28,23:40,0.865,1.443,0.899,1.681,1.146,0.488,0.854,0.818,��,4.6,��
2018/03/28,23:50,0.865,1.440,0.901,1.683,1.143,0.489,0.853,0.816,��,4.4,��
